When you browse on this site, cookies collect data to enhance your experience and personalize the content and advertising you see.
Visit our Privacy Policy to learn more. By continuing to use the site, you agree to this use of cookies and data.
  • In Hungary
  • List of Countries
  • For 7 days
  • Water Temperature
  • Satellite Maps
  • Weather Map
  • News
  • Weather Widgets
  • user-avatar
    Login

    Hourly Weather Trzemsze

    Today, 20 May, Monday

    Time Temperature Precipitation Wind Pressure Humidity
    00:00 +15°C° 0 mm 2 mps 739 mmHg 91%
    01:00 +15°C° 0 mm 2 mps 738 mmHg 92%
    02:00 +14°C° 0 mm 2 mps 738 mmHg 93%
    03:00 +14°C° 0 mm 2 mps 738 mmHg 93%
    04:00 +14°C° 0 mm 1 mps 738 mmHg 93%
    05:00 +14°C° 0.2 mm 1 mps 738 mmHg 92%
    06:00 +15°C° 0.2 mm 1 mps 738 mmHg 91%
    07:00 +16°C° 0.2 mm 1 mps 737 mmHg 90%
    08:00 +18°C° 0 mm 1 mps 737 mmHg 86%
    09:00 +18°C° 0 mm 2 mps 738 mmHg 81%
    10:00 +20°C° 0 mm 2 mps 738 mmHg 77%
    11:00 +21°C° 0 mm 2 mps 737 mmHg 73%
    12:00 +22°C° 0 mm 3 mps 737 mmHg 69%
    13:00 +24°C° 0 mm 3 mps 737 mmHg 65%
    14:00 +24°C° 0.1 mm 3 mps 737 mmHg 64%
    15:00 +24°C° 0.1 mm 3 mps 737 mmHg 63%
    16:00 +24°C° 0.1 mm 3 mps 736 mmHg 62%
    17:00 +22°C° 0.1 mm 3 mps 737 mmHg 68%
    18:00 +20°C° 0.1 mm 2 mps 737 mmHg 74%
    19:00 +19°C° 0.1 mm 2 mps 737 mmHg 80%
    20:00 +18°C° 0 mm 2 mps 737 mmHg 83%
    21:00 +17°C° 0 mm 2 mps 737 mmHg 85%
    22:00 +16°C° 0 mm 2 mps 737 mmHg 87%
    23:00 +15°C° 0 mm 2 mps 737 mmHg 89%

    Tomorrow, 21 May, Tuesday

    Time Temperature Precipitation Wind Pressure Humidity
    00:00 +15°C° 0 mm 1 mps 737 mmHg 90%
    01:00 +14°C° 0 mm 1 mps 738 mmHg 92%
    02:00 +14°C° 0 mm 1 mps 738 mmHg 92%
    03:00 +13°C° 0 mm 1 mps 738 mmHg 92%
    04:00 +13°C° 0 mm 1 mps 738 mmHg 92%
    05:00 +14°C° 0 mm 2 mps 738 mmHg 88%
    06:00 +16°C° 0 mm 2 mps 738 mmHg 83%
    07:00 +17°C° 0 mm 2 mps 738 mmHg 79%
    08:00 +19°C° 0 mm 1 mps 738 mmHg 75%
    09:00 +20°C° 0 mm 1 mps 738 mmHg 72%
    10:00 +21°C° 0 mm 1 mps 738 mmHg 68%
    11:00 +20°C° 0.2 mm 1 mps 738 mmHg 71%
    12:00 +20°C° 0.2 mm 1 mps 738 mmHg 74%
    13:00 +20°C° 0.2 mm 1 mps 738 mmHg 77%
    14:00 +20°C° 0.1 mm 1 mps 738 mmHg 80%
    15:00 +19°C° 0.1 mm 1 mps 737 mmHg 82%
    16:00 +19°C° 0.1 mm 1 mps 737 mmHg 84%
    17:00 +18°C° 0.4 mm 2 mps 737 mmHg 85%
    18:00 +17°C° 0.4 mm 3 mps 737 mmHg 86%
    19:00 +17°C° 0.4 mm 3 mps 737 mmHg 87%
    20:00 +17°C° 1.4 mm 4 mps 737 mmHg 90%
    21:00 +15°C° 1.4 mm 4 mps 737 mmHg 92%
    22:00 +15°C° 1.4 mm 4 mps 737 mmHg 94%
    23:00 +14°C° 0.7 mm 5 mps 737 mmHg 95%

    Day after tomorrow, 22 May, Wednesday

    Time Temperature Precipitation Wind Pressure Humidity
    00:00 +14°C° 0.7 mm 5 mps 737 mmHg 95%
    01:00 +14°C° 0.7 mm 5 mps 737 mmHg 95%
    02:00 +14°C° 0.4 mm 5 mps 736 mmHg 96%
    03:00 +14°C° 0.4 mm 4 mps 736 mmHg 96%
    04:00 +14°C° 0.4 mm 4 mps 736 mmHg 97%
    05:00 +15°C° 0.2 mm 4 mps 736 mmHg 96%
    06:00 +15°C° 0.2 mm 4 mps 736 mmHg 95%
    07:00 +15°C° 0.2 mm 4 mps 737 mmHg 94%
    08:00 +15°C° 0.4 mm 4 mps 737 mmHg 93%
    09:00 +17°C° 0.4 mm 4 mps 737 mmHg 92%
    10:00 +17°C° 0.4 mm 3 mps 737 mmHg 91%
    11:00 +17°C° 1.5 mm 4 mps 737 mmHg 91%
    12:00 +16°C° 1.5 mm 5 mps 737 mmHg 90%
    13:00 +16°C° 1.5 mm 6 mps 738 mmHg 90%
    14:00 +16°C° 1.6 mm 6 mps 738 mmHg 90%
    15:00 +16°C° 1.6 mm 6 mps 738 mmHg 91%
    16:00 +15°C° 1.6 mm 7 mps 738 mmHg 91%
    17:00 +15°C° 1.1 mm 7 mps 739 mmHg 92%
    18:00 +15°C° 1.1 mm 7 mps 739 mmHg 92%
    19:00 +15°C° 1.1 mm 7 mps 739 mmHg 93%
    20:00 +14°C° 1.4 mm 7 mps 740 mmHg 93%
    21:00 +13°C° 1.4 mm 8 mps 740 mmHg 94%
    22:00 +13°C° 1.4 mm 8 mps 741 mmHg 94%
    23:00 +12°C° 1.1 mm 8 mps 741 mmHg 94%

    23 May, Thursday

    Time Temperature Precipitation Wind Pressure Humidity
    00:00 +12°C° 1.1 mm 8 mps 741 mmHg 94%
    01:00 +12°C° 1.1 mm 8 mps 741 mmHg 94%
    02:00 +11°C° 1.3 mm 8 mps 742 mmHg 94%
    03:00 +11°C° 1.3 mm 9 mps 742 mmHg 94%
    04:00 +11°C° 1.3 mm 9 mps 743 mmHg 93%
    05:00 +10°C° 0.8 mm 9 mps 743 mmHg 93%
    06:00 +10°C° 0.8 mm 9 mps 744 mmHg 93%
    07:00 +9°C° 0.8 mm 8 mps 744 mmHg 92%
    08:00 +9°C° 0.2 mm 8 mps 745 mmHg 91%
    09:00 +9°C° 0.2 mm 8 mps 746 mmHg 90%
    10:00 +8°C° 0.2 mm 7 mps 746 mmHg 89%
    11:00 +9°C° 0 mm 7 mps 747 mmHg 86%
    12:00 +10°C° 0 mm 6 mps 747 mmHg 82%
    13:00 +12°C° 0 mm 5 mps 747 mmHg 78%
    14:00 +13°C° 0 mm 5 mps 747 mmHg 74%
    15:00 +15°C° 0 mm 5 mps 747 mmHg 69%
    16:00 +16°C° 0 mm 5 mps 747 mmHg 65%
    17:00 +15°C° 0 mm 5 mps 747 mmHg 68%
    18:00 +14°C° 0 mm 4 mps 747 mmHg 72%
    19:00 +13°C° 0 mm 3 mps 747 mmHg 75%
    20:00 +12°C° 0 mm 3 mps 747 mmHg 79%
    21:00 +10°C° 0 mm 2 mps 748 mmHg 82%
    22:00 +9°C° 0 mm 2 mps 748 mmHg 86%
    23:00 +9°C° 0 mm 1 mps 748 mmHg 87%

    24 May, Friday

    Time Temperature Precipitation Wind Pressure Humidity
    00:00 +9°C° 0 mm 1 mps 747 mmHg 89%
    01:00 +8°C° 0 mm 1 mps 747 mmHg 91%
    02:00 +8°C° 0 mm 1 mps 747 mmHg 91%
    03:00 +7°C° 0 mm 1 mps 747 mmHg 91%
    04:00 +7°C° 0 mm 1 mps 747 mmHg 92%
    05:00 +8°C° 0 mm 0 mps 747 mmHg 86%
    06:00 +10°C° 0 mm 0 mps 746 mmHg 80%
    07:00 +12°C° 0 mm 0 mps 746 mmHg 75%
    08:00 +13°C° 0 mm 0 mps 746 mmHg 69%
    09:00 +15°C° 0 mm 0 mps 746 mmHg 63%
    10:00 +16°C° 0 mm 0 mps 745 mmHg 57%
    11:00 +17°C° 0 mm 0 mps 745 mmHg 54%
    12:00 +18°C° 0 mm 0 mps 744 mmHg 52%
    13:00 +19°C° 0 mm 0 mps 744 mmHg 49%
    14:00 +19°C° 0 mm 0 mps 743 mmHg 49%
    15:00 +21°C° 0 mm 1 mps 743 mmHg 48%
    16:00 +20°C° 0 mm 1 mps 742 mmHg 48%
    17:00 +19°C° 0 mm 1 mps 742 mmHg 54%
    18:00 +18°C° 0 mm 1 mps 742 mmHg 60%
    19:00 +16°C° 0 mm 1 mps 742 mmHg 66%
    20:00 +14°C° 0 mm 2 mps 742 mmHg 68%
    21:00 +13°C° 0 mm 2 mps 742 mmHg 70%
    22:00 +12°C° 0 mm 2 mps 742 mmHg 72%
    23:00 +12°C° 0 mm 2 mps 742 mmHg 74%

    25 May, Saturday

    Time Temperature Precipitation Wind Pressure Humidity
    00:00 +10°C° 0 mm 2 mps 742 mmHg 76%
    01:00 +10°C° 0 mm 2 mps 742 mmHg 78%
    02:00 +10°C° 0 mm 2 mps 742 mmHg 80%
    03:00 +9°C° 0 mm 2 mps 742 mmHg 82%
    04:00 +9°C° 0 mm 2 mps 742 mmHg 84%
    05:00 +12°C° 0 mm 2 mps 742 mmHg 81%
    06:00 +13°C° 0 mm 2 mps 742 mmHg 77%
    07:00 +15°C° 0 mm 2 mps 742 mmHg 74%
    08:00 +16°C° 0 mm 2 mps 742 mmHg 68%
    09:00 +18°C° 0 mm 2 mps 742 mmHg 62%
    10:00 +19°C° 0 mm 2 mps 742 mmHg 56%
    11:00 +20°C° 0 mm 2 mps 742 mmHg 54%
    12:00 +22°C° 0 mm 1 mps 742 mmHg 51%
    13:00 +23°C° 0 mm 1 mps 742 mmHg 49%
    14:00 +23°C° 0 mm 1 mps 742 mmHg 48%
    15:00 +21°C° 0 mm 0 mps 742 mmHg 48%
    16:00 +21°C° 0 mm 0 mps 741 mmHg 47%
    17:00 +20°C° 0 mm 0 mps 741 mmHg 53%
    18:00 +19°C° 0 mm 0 mps 741 mmHg 59%
    19:00 +18°C° 0 mm 0 mps 742 mmHg 64%
    20:00 +18°C° 0 mm 1 mps 742 mmHg 66%
    21:00 +16°C° 0 mm 1 mps 742 mmHg 69%
    22:00 +15°C° 0 mm 1 mps 742 mmHg 71%
    23:00 +14°C° 0 mm 1 mps 742 mmHg 74%
    Show more